Weather in Syrkovo

Russia / Novgorod Oblast     58°34′46″N   31°14′01″E
temp.,
°C
wind,
m/s
gust,
m/s
humid.,
%
clouds,
%
prec.,
mm/h
press.,
hPa
HPBL,
m
21 october, thu
thu2100:00+11ssw82091100 1.3 9881303
03:00+13sw91986100 2.1 9871348
06:00+12sw71690100 0.9 9861100
09:00+12sw6158660 2.4 987995
12:00+14wsw81579100 1.1 9881266
15:00+13sw61281100 1.4 989833
18:00+12s61386100 0.1 987637
21:00+11s71589100 0.7 983849
22 october, fri
fri2200:00+12ssw91877100 1.4 9801322
03:00+11sw71681100 1.9 9801553
06:00+8sw816685 0.4 9821281
09:00+8sw91765100 0.4 9831728
12:00+9sw9186583 0.1 9841886
15:00+8sw9176818 0.1 9871679
18:00+7sw816635 0.0 9891474
21:00+6sw8167043 0.0 9911362
23 october, sat
sat2300:00+6sw7137878 0.0 9921025
03:00+6sw71485100 1.9 9921382
06:00+6wsw4889100 1.6 993941
09:00+5sw498526 2.4 994499
12:00+6w5876100 0.0 997920
15:00+6w4778100 0.3 999829
18:00+4w378598 0.1 1002349
21:00+3wnw478796 0.1 1004570
24 october, sun
sun2400:00+4nw5996100 0.8 1006806
03:00+3nnw51195100 1.3 1009776
06:00+2nw61292100 0.9 1012809
09:00+2nnw61178100 0.9 1016917
12:00+2nnw61074100 0.0 1019975
15:00+3nnw59689 0.0 10221155
18:00+1nnw410735 0.0 1025560
21:000nw3879100 0.0 1027297
25 october, mon
mon2500:00−1nw23825 0.0 102985
03:00−1w2280100 0.0 103052
06:00−1sw2579100 0.0 1030176
09:000ssw4975100 0.0 1030428
12:00+3ssw5116498 0.0 1029552
15:00+4ssw6126475 0.0 1028673
18:00+3ssw6137223 0.0 1027546
21:00+2ssw6157420 0.0 1025529